TITAN 3C TRANSTAGE DEB, 3373

Orbit data source: Space-Track

TITAN 3C TRANSTAGE DEB, 3373 is space debris in LEO originally from a launch on Fri, 15 Oct 1965 UTC launched from the Air Force Eastern Test Range (AFETR). Debris objects in space refer to the collection of defunct objects orbiting the Earth. Examples of debris include non-operational satellites, rocket bodies, and fragments generated from explosions, collisions, or faulty payload assembly.

Loading next visibility...
Identifier
3373, 1965-082ML
Orbit
LEO
Country
Flag of USUS
Related business
Manufacturer
Unknown
Mission
Spacecraft
Bus & Motor
Unknown
Mass
Unknown
Launch date (UTC)
1965-10-15 (60 years ago)
Launch vehicle
Unknown
Launch site
Air Force Eastern Test Range (AFETR)
Object type
Payload
Rocket body
Debris
Shape & HBR
Unknown shape, 0.1 m
Radar Cross Section
Small (<0.1 m²)

Expand to show TLE details & history
Last TLE update: 16 hours ago

TLE from 16 hours ago
0 TITAN 3C TRANSTAGE DEB
1 03373U 65082ML  25348.13926495  .00010905  00000-0  23240-2 0  9996
2 03373  30.9727 150.0751 0154414  97.7709 264.0472 14.50667381 23868
Epoch: 2025-12-14T03:20Z
TLE epoch observation values (Epoch: 2025-12-14T03:20:32.491Z)
Latitude
-0.00007°
Longitude
16.88314°
Altitude
735.055 km
Speed
7.483 km/s
True Right ascension
10h 00m 17s
True Declination
0° 00' 00"
Sunlit
Object was in daylight at epoch
Visualization orbit readout
Latitude
Unknown
Longitude
Unknown
Altitude
Unknown
Speed
Unknown
Apparent Right ascension
Unknown
Apparent Declination
Unknown
Sunlit
N/A
Visualization observer readout
Local Sidereal Time
17:57:51
Azimuth
Unknown
Elevation
Unknown
Doppler factor
Unknown
Orbital elements
Apogee altitude
836.931 km
Perigee altitude
617.498 km
Semi-major axis
7,105.352 km
Eccentricity
0.01544
Inclination
30.9727°
RAAN
150.0751°
Arg. of periapsis
97.7709°
True anomaly
262.29108°
Mean anomaly
264.0472°
Eccentric anomaly
263.16875°
Mean motion
3.6238 °/min
Orbital period
99.34 mins
BSTAR
0.002324

Documentation

Showing up to 5 results
|